User: anonymous   Login
Location: Unspecified
(0.0000°N, 0.0000°E)
Time: 22:20:51
(UTC+00:00)
Language:

STARLINK-1064 - Orbit

View from above orbital plane
View from above orbital plane
View from above satellite
View from above satellite

Ground track
Ground track

The orbit data is extracted from the following two-line orbital elements,

1 44769C 19074BJ  20057.53371240  .00027697  00000-0  18966-2 0   578
2 44769  53.0023  36.9572 0001772  54.5928 191.0992 15.05562009    12
Epoch (UTC): 26 February 2020 12:48:32
Eccentricity: 0.0001772
inclination: 53.0023°
perigee height: 548 km
apogee height: 551 km
right ascension of ascending node: 36.9572°
argument of perigee: 54.5928°
revolutions per day: 15.05562009
mean anomaly at epoch: 191.0992°
orbit number at epoch: 1

The dashed part of the orbit path shows where the satellite is in the earth's shadow,  

DLR